星链-35096 (STARLINK-35096)

导读

STARLINK-35096是美国SpaceX公司星链(Starlink)星座中的一颗低轨宽带卫星,于2025年9月3日发射入轨。作为星链全球组网阶段发射的卫星,它继承了星链成熟技术,具备低延迟通信与高带宽传输能力,助力拓展星链全球覆盖范围,为偏远地区、特殊场景提供高速互联网接入,推动星链实现全球无缝宽带覆盖的目标,目前已正常在轨运行,服务全球超600万星链用户。

Basic Information
目录编号:
65479
目录名称:
STARLINK-35096
国际标识:
2025-195X
轨道中心:
EARTH
卫星名称:
星链-35096
卫星全名:
星链-35096 (STARLINK-35096)
卫星状态:
在轨 (已飞行366 天)
发射日期:
2025-09-03 UTC
国别 :
美国 (US)
星等 :
--
Orbit Information
数据来源 国际轨道数据
星历时间: 2026-09-04T14:19:39+0800
12小时前
查看轨道信息
半长轴: 6848.832km
偏心率: 0.0001251
轨道倾角: 53.158°
近地点辐角 93.737°
升交点赤经 147.337°
平近点角 266.378°
近地点: 469.838km
远地点: 471.552km
周期: 94.012分钟
每日圈数: 15.317152
Detailed Information
固有亮度:
5
最大亮度:
2.5
卫星平台:
Starlink V1.0
覆盖范围:
全球
运营商:
太空探索技术公司
运营商所在国:
美国
制造商(研发单位):
太空探索技术公司
制造商所在国:
美国
使用方式:
暂无
Satellite Introduction
Starlink 计划是 SpaceX 推出的全球卫星互联网项目,通过发射低轨道卫星,为全球尤其是偏远地区提供高速、低延迟的互联网服务。自 2019 年起,Starlink 已部署数千颗卫星,旨在缩小全球数字鸿沟,推动互联网普及。该项目还为军事、航空等行业提供通信支持,带来广泛经济效益。
2D Orbit Map
3D Orbit Map
Orbit Altitude Analysis Chart
Orbit Inclination Analysis Chart
Orbit Comprehensive Analysis Chart
View Comprehensive Chart
Conjunction Data List
Event ID Objects TCA Miss Dist (km) Collision Risk Probability Collision Risk Index (CRI) Action
CDM_260905-035405-308806-547921
2026-09-05T
03:54:38+0000
0.864 km
远距离
3.480578E-5 中风险 0.66
CDM_260906-085904-835906-547921
2026-09-06T
08:59:00+0000
1.960 km
极远距离
2.258582E-6 低风险 0.42
CDM_260906-121306-547906-772721
2026-09-06T
12:13:30+0000
2.381 km
极远距离
1.913947E-6 低风险 0.41
CDM_260905-202506-547906-765221
2026-09-05T
20:25:50+0000
2.421 km
极远距离
1.805046E-6 低风险 0.4
CDM_260906-142406-547906-949421
2026-09-06T
14:24:47+0000
2.568 km
极远距离
1.605206E-6 低风险 0.39
CDM_260905-093806-547906-760021
2026-09-05T
09:38:44+0000
2.974 km
极远距离
1.348976E-6 低风险 0.38
CDM_260905-023706-547906-754721
2026-09-05T
02:37:34+0000
2.196 km
极远距离
1.303003E-6 低风险 0.37
CDM_260905-044105-308806-547921
2026-09-05T
04:41:38+0000
2.812 km
极远距离
1.191199E-6 低风险 0.37
CDM_260906-200206-547906-872921
2026-09-06T
20:02:44+0000
2.954 km
极远距离
8.481373E-7 极低风险 0.34